KA4JMC Weather Reports


Display with metric or nautical units.
time (UTC)temp
F
wind
direction
speed
MPH
gust
MPH
rain 1hr
in
rain 24hr
in
rain mn
in
humidity
%
barometer
mb
20260504185035 80 180 5.0 5.0 0.00 0.00 0.00 974.8
20260504184513 80 183 6.0 7.0 0.00 0.00 0.00 974.8
20260504184013 80 279 6.0 8.0 0.00 0.00 0.00 974.8
20260504183514 80 253 3.0 5.0 0.00 0.00 0.00 974.8
20260504183036 79 230 4.0 3.0 0.00 0.00 0.00 974.8
20260504182515 79 245 6.0 2.0 0.00 0.00 0.00 974.8
20260504182017 79 284 7.0 11.0 0.00 0.00 0.00 974.8
20260504181536 80 188 8.0 8.0 0.00 0.00 0.00 974.8
20260504181042 79 227 7.0 6.0 0.00 0.00 0.00 974.8
20260504180513 79 224 0.0 4.0 0.00 0.00 0.00 974.8
20260504180015 79 220 3.0 8.0 0.00 0.00 0.00 974.8
20260504175513 79 177 4.0 10.0 0.00 0.00 0.00 974.8
20260504175013 78 219 4.0 6.0 0.00 0.00 0.00 974.8
20260504174517 79 244 8.0 8.0 0.00 0.00 0.00 974.8
20260504174014 79 231 7.0 8.0 0.00 0.00 0.00 974.8
20260504173514 78 201 5.0 4.0 0.00 0.00 0.00 974.8
20260504173015 78 255 4.0 6.0 0.00 0.00 0.00 975.8
20260504172514 78 145 6.0 4.0 0.00 0.00 0.00 975.8
20260504172014 78 229 7.0 6.0 0.00 0.00 0.00 975.8
20260504171534 78 210 5.0 5.0 0.00 0.00 0.00 975.8
20260504171023 78 236 6.0 6.0 0.00 0.00 0.00 975.8
20260504170515 78 234 6.0 6.0 0.00 0.00 0.00 975.8
20260504151013 72 209 3.0 0.0 0.00 0.00 0.00 976.8
20260504150514 71 184 4.0 5.0 0.00 0.00 0.00 976.8
20260504141014 67 222 0.0 4.0 0.00 0.00 0.00 976.8
20260504140513 67 219 4.0 6.0 0.00 0.00 0.00 976.8
20260504130513 58 210 0.0 0.0 0.00 0.00 0.00 976.8
20260504110513 47 217 0.0 0.0 0.00 0.00 0.00 976.8
20260504100513 47 242 0.0 0.0 0.00 0.00 0.00 976.8
20260504081517 48 242 0.0 0.0 0.00 0.00 0.00 976.8
20260504081014 49 242 0.0 0.0 0.00 0.00 0.00 976.8
20260504080514 49 243 0.0 0.0 0.00 0.00 0.00 976.8
20260504050517 57 189 0.0 0.0 0.00 0.00 0.00 979.8
20260504045535 57 213 0.0 4.0 0.00 0.00 0.00 978.8
20260504045015 57 206 0.0 0.0 0.00 0.00 0.00 978.8
20260504044514 57 195 3.0 3.0 0.00 0.00 0.00 978.8
20260504044013 57 222 4.0 4.0 0.00 0.00 0.00 978.8
20260504043514 57 211 2.0 0.0 0.00 0.00 0.00 978.8
20260504043014 57 191 2.0 0.0 0.00 0.00 0.00 979.8
20260504042514 57 195 4.0 4.0 0.00 0.00 0.00 979.8
20260504042039 58 234 0.0 0.0 0.00 0.00 0.00 979.8
20260504041514 58 191 0.0 0.0 0.00 0.00 0.00 979.8
20260504041014 58 209 0.0 0.0 0.00 0.00 0.00 979.8
20260504040526 58 216 2.0 2.0 0.00 0.00 0.00 979.8
20260504040014 58 218 0.0 0.0 0.00 0.00 0.00 979.8
20260504035514 58 251 0.0 3.0 0.00 0.00 0.00 979.8
20260504035017 58 195 0.0 0.0 0.00 0.00 0.00 979.8
20260504034513 58 192 0.0 0.0 0.00 0.00 0.00 979.8
20260504034014 58 189 0.0 0.0 0.00 0.00 0.00 979.8
20260504033514 58 224 0.0 0.0 0.00 0.00 0.00 979.8
20260504033019 58 183 3.0 5.0 0.00 0.00 0.00 979.8
20260504032514 58 220 0.0 0.0 0.00 0.00 0.00 979.8
20260504032014 58 192 0.0 0.0 0.00 0.00 0.00 979.8
20260504031514 59 207 0.0 0.0 0.00 0.00 0.00 979.8
20260504031015 59 209 0.0 0.0 0.00 0.00 0.00 979.8
20260504030514 59 192 0.0 0.0 0.00 0.00 0.00 979.8
20260504030021 59 192 0.0 0.0 0.00 0.00 0.00 979.8
20260504025513 59 224 0.0 0.0 0.00 0.00 0.00 979.8
20260504025020 59 196 0.0 0.0 0.00 0.00 0.00 979.8
20260504024534 59 200 0.0 0.0 0.00 0.00 0.00 979.8
20260504024017 59 187 0.0 0.0 0.00 0.00 0.00 979.8
20260504023514 59 198 0.0 0.0 0.00 0.00 0.00 979.8
20260504023027 59 197 0.0 0.0 0.00 0.00 0.00 979.8
20260504022514 59 229 0.0 0.0 0.00 0.00 0.00 979.8
20260504022013 58 204 0.0 0.0 0.00 0.00 0.00 979.8
20260504021515 58 214 0.0 0.0 0.00 0.00 0.00 979.8
20260504021013 58 207 0.0 0.0 0.00 0.00 0.00 979.8
20260504020514 58 213 0.0 0.0 0.00 0.00 0.00 979.8
20260504020024 58 218 3.0 0.0 0.00 0.00 0.00 979.8
20260504015534 58 208 0.0 0.0 0.00 0.00 0.00 979.8
20260504015018 58 208 0.0 0.0 0.00 0.00 0.00 979.8
20260504014514 59 208 0.0 0.0 0.00 0.00 0.00 979.8
20260504014013 59 208 0.0 0.0 0.00 0.00 0.00 979.8
20260504013513 59 208 0.0 0.0 0.00 0.00 0.00 979.8
20260504013014 60 208 0.0 0.0 0.00 0.00 0.00 979.8
20260504012513 60 208 0.0 0.0 0.00 0.00 0.00 979.8
20260504012014 61 208 0.0 0.0 0.00 0.00 0.00 979.8
20260504011513 61 208 0.0 0.0 0.00 0.00 0.00 978.8
20260504011020 61 208 0.0 0.0 0.00 0.00 0.00 978.8
20260504010514 62 208 0.0 0.0 0.00 0.00 0.00 978.8
20260504010014 62 218 0.0 0.0 0.00 0.00 0.00 979.8
20260504005513 62 233 0.0 0.0 0.00 0.00 0.00 979.8
20260504005015 63 243 0.0 0.0 0.00 0.00 0.00 979.8
20260504004513 63 233 0.0 0.0 0.00 0.00 0.00 979.8
20260504004012 63 205 0.0 0.0 0.00 0.00 0.00 979.8
20260504003514 63 232 2.0 7.0 0.00 0.00 0.00 979.8
20260504003022 64 222 3.0 0.0 0.00 0.00 0.00 979.8
20260504002513 64 191 3.0 3.0 0.00 0.00 0.00 979.8
20260504002017 64 239 2.0 2.0 0.00 0.00 0.00 979.8
20260504001514 64 243 4.0 5.0 0.00 0.00 0.00 979.8
20260504001034 64 233 4.0 4.0 0.00 0.00 0.00 979.8
20260504000514 64 335 4.0 4.0 0.00 0.00 0.00 979.8
20260504000039 64 192 4.0 4.0 0.00 0.00 0.00 979.8
20260503235513 65 210 3.0 5.0 0.00 0.00 0.00 979.8
20260503235018 65 259 3.0 5.0 0.00 0.00 0.00 979.8
20260503234513 65 248 3.0 3.0 0.00 0.00 0.00 978.8
20260503234013 65 189 4.0 5.0 0.00 0.00 0.00 978.8
20260503233513 65 213 5.0 4.0 0.00 0.00 0.00 978.8
20260503233037 65 209 4.0 3.0 0.00 0.00 0.00 979.8
20260503232534 65 161 4.0 0.0 0.00 0.00 0.00 979.8
20260503232019 66 230 0.0 4.0 0.00 0.00 0.00 979.8
20260503231515 66 231 6.0 5.0 0.00 0.00 0.00 978.8
20260503231018 66 244 4.0 8.0 0.00 0.00 0.00 978.8
20260503230515 66 210 8.0 6.0 0.00 0.00 0.00 978.8
20260503230020 66 154 0.0 0.0 0.00 0.00 0.00 979.8
20260503225514 66 217 4.0 5.0 0.00 0.00 0.00 979.8
20260503225013 66 241 5.0 6.0 0.00 0.00 0.00 979.8
20260503224534 66 212 7.0 5.0 0.00 0.00 0.00 979.8
20260503224020 66 236 3.0 4.0 0.00 0.00 0.00 979.8
20260503223513 66 216 4.0 10.0 0.00 0.00 0.00 979.8
20260503223037 66 236 6.0 2.0 0.00 0.00 0.00 979.8
20260503222516 66 210 4.0 6.0 0.00 0.00 0.00 979.8
20260503222015 66 229 8.0 8.0 0.00 0.00 0.00 979.8
20260503221514 66 200 6.0 6.0 0.00 0.00 0.00 979.8
20260503221017 66 191 6.0 3.0 0.00 0.00 0.00 979.8
20260503220514 66 236 7.0 4.0 0.00 0.00 0.00 979.8
20260503220018 66 196 6.0 8.0 0.00 0.00 0.00 979.8
20260503215514 66 197 3.0 8.0 0.00 0.00 0.00 979.8
20260503215013 66 209 8.0 8.0 0.00 0.00 0.00 979.8
20260503214514 66 171 4.0 6.0 0.00 0.00 0.00 979.8
20260503214035 66 239 5.0 8.0 0.00 0.00 0.00 979.8
20260503213513 66 12 8.0 5.0 0.00 0.00 0.00 979.8
20260503213027 66 190 7.0 8.0 0.00 0.00 0.00 979.8
20260503212513 66 200 8.0 6.0 0.00 0.00 0.00 979.8
20260503212014 67 221 8.0 7.0 0.00 0.00 0.00 979.8
20260503211534 67 222 6.0 11.0 0.00 0.00 0.00 980.8
20260503211016 66 227 4.0 6.0 0.00 0.00 0.00 980.8
20260503210514 66 220 8.0 8.0 0.00 0.00 0.00 980.8
20260503210014 66 209 10.0 6.0 0.00 0.00 0.00 980.8
20260503205516 67 203 8.0 11.0 0.00 0.00 0.00 980.8
20260503205013 67 208 8.0 10.0 0.00 0.00 0.00 980.8
20260503204535 67 165 8.0 3.0 0.00 0.00 0.00 980.8
20260503204015 67 211 12.0 13.0 0.00 0.00 0.00 980.8
20260503203513 66 220 7.0 8.0 0.00 0.00 0.00 980.8
20260503203013 66 256 6.0 11.0 0.00 0.00 0.00 980.8
20260503202513 66 202 7.0 8.0 0.00 0.00 0.00 980.8
20260503202034 66 203 9.0 10.0 0.00 0.00 0.00 980.8
20260503201514 66 195 6.0 8.0 0.00 0.00 0.00 981.8
20260503201018 67 181 5.0 6.0 0.00 0.00 0.00 981.8
20260503200513 66 140 6.0 6.0 0.00 0.00 0.00 981.8
20260503200034 66 233 4.0 4.0 0.00 0.00 0.00 981.8
20260503195513 65 233 10.0 4.0 0.00 0.00 0.00 981.8
20260503195035 65 256 6.0 5.0 0.00 0.00 0.00 981.8
20260503194525 65 184 7.0 17.0 0.00 0.00 0.00 981.8
20260503194017 64 192 7.0 6.0 0.00 0.00 0.00 981.8
20260503193537 64 222 9.0 7.0 0.00 0.00 0.00 981.8
20260503193023 64 205 8.0 4.0 0.00 0.00 0.00 981.8
20260503192513 64 126 9.0 9.0 0.00 0.00 0.00 981.8
20260503192016 64 198 6.0 6.0 0.00 0.00 0.00 981.8
20260503191516 64 238 6.0 8.0 0.00 0.00 0.00 981.8
20260503191013 64 120 4.0 5.0 0.00 0.00 0.00 981.8
20260503190517 64 199 6.0 6.0 0.00 0.00 0.00 981.8
20260503190024 63 182 7.0 4.0 0.00 0.00 0.00 981.8
20260503185515 63 208 7.0 6.0 0.00 0.00 0.00 981.8